Wind_Speed
9 8 7 7 8 7 6 4 3 3 3 4 4 3 6 8 8 9 9 9 9 8 8 7 6 5 8 10 9 6 6 6 5 4 2 1 1 1 5 8 10 11 13
2 8 6 7 8 7 7 7 7 6 5 5 5 5 5 6 10 10 11 11 11 10 10 10 8 8 9 11 10 7 5 5 5 4 2 1 1 4 7 7 9 9 12
7 8 9 7 5 6 7 8 8 7 8 7 7 7 8 8 9 11 12 13 12 12 12 11 11 12 12 11 9 8 7 6 6 5 4 3 4 7 9 11 12 12 12
9 10 11 10 12 12 10 10 9 10 10 10 9 9 11 11 11 13 13 14 15 16 15 15 15 13 10 8 8 8 8 7 8 8 7 7 9 11 11 13 12 11 14
11 13 12 13 12 13 14 15 13 12 12 12 12 12 11 12 13 14 15 15 16 16 16 15 13 10 7 5 6 7 8 9 9 10 9 11 15 15 16 15 13 12 11
16 15 17 17 17 17 18 17 17 16 14 14 14 15 14 15 16 17 16 17 17 16 14 14 11 8 6 5 5 5 5 7 9 8 8 10 13 15 16 16 14 11 9
18 19 19 19 18 19 19 19 19 20 19 19 18 17 17 17 18 19 18 17 16 14 12 13 12 10 8 7 7 5 3 5 8 8 9 11 12 11 12 16 16 13 10
22 21 23 22 22 22 24 22 21 21 21 21 21 20 18 19 20 20 20 19 18 15 14 14 15 13 11 9 9 7 3 4 7 7 8 15 17 15 12 9 13 13 12
27 26 25 26 26 26 27 26 25 25 24 23 22 22 21 20 21 21 21 19 18 17 17 16 17 15 13 12 11 7 4 5 6 5 11 15 19 17 13 8 11 12 12
31 30 29 28 27 28 29 31 31 29 27 26 24 24 23 22 22 22 23 22 20 18 19 20 21 18 17 15 13 10 8 8 8 9 13 15 17 17 16 12 12 12 13
35 34 34 33 31 31 30 31 33 34 33 31 29 28 27 26 24 24 24 25 23 21 21 24 23 21 20 19 16 14 12 12 12 13 16 19 18 18 18 15 11 13 13
36 38 38 38 36 35 35 34 34 35 37 37 35 33 32 30 28 26 26 28 26 24 23 24 26 25 24 21 20 18 17 16 16 15 21 20 22 20 19 15 14 16 16
40 40 41 41 41 38 37 37 38 38 37 39 39 38 37 34 31 29 29 31 30 30 28 28 28 27 27 25 21 20 18 19 18 17 20 24 25 24 24 15 18 16 16
45 45 44 42 42 42 42 40 40 40 41 39 41 42 42 41 34 31 33 30 35 35 33 31 30 29 28 26 22 18 17 20 19 19 20 26 30 24 19 21 19 18 17
43 43 45 48 47 46 46 46 45 44 43 44 43 44 44 44 40 38 34 36 41 42 37 35 33 31 29 28 24 20 18 18 20 19 21 29 33 33 24 21 20 18 18
43 44 44 43 44 46 48 49 49 48 47 47 46 46 47 46 46 42 44 40 37 53 37 38 36 34 31 31 27 22 21 19 19 20 21 28 37 37 32 27 21 18 18
42 43 45 46 46 45 44 45 49 51 50 50 50 51 49 48 48 49 45 49 40 33 51 42 42 40 38 36 32 29 24 21 19 19 20 22 31 41 38 35 28 23 18
45 45 46 47 48 48 47 47 45 47 52 53 53 54 53 51 50 48 47 50 47 44 47 37 43 41 40 41 37 33 28 25 20 19 20 20 24 34 42 42 37 28 22
34 35 38 40 41 45 50 50 49 49 48 51 55 57 56 54 53 54 52 61 56 45 43 40 47 44 42 41 41 35 30 27 22 22 20 19 22 26 34 41 42 37 25
32 31 30 31 33 34 35 41 47 50 52 50 51 54 58 59 56 56 57 56 60 60 41 26 40 62 58 45 43 37 33 29 25 24 21 18 20 22 27 34 38 37 28
29 30 30 31 30 33 33 33 35 41 43 52 55 53 54 57 61 60 57 54 51 55 57 49 35 38 41 48 41 39 37 32 28 27 24 20 20 22 23 29 34 35 31
35 35 33 32 32 32 32 32 32 32 35 38 46 54 57 55 58 60 61 58 55 45 55 47 46 35 33 46 35 38 38 37 34 31 27 25 22 26 25 29 28 34 30
41 41 40 38 36 35 36 34 34 31 29 33 34 39 46 55 58 58 58 60 60 55 52 58 45 36 38 41 38 38 51 45 38 34 31 28 26 26 28 33 35 33 28
46 45 45 43 43 41 37 36 36 36 33 29 32 34 36 41 49 58 59 57 56 57 47 50 55 56 37 49 48 45 44 44 40 35 34 31 30 28 29 31 31 36 36
47 45 42 43 42 41 39 37 35 36 36 34 31 31 32 31 36 45 55 58 54 54 55 49 45 49 45 48 53 49 48 48 42 41 38 34 32 31 29 30 31 33 33
41 40 38 37 36 38 40 38 36 35 34 34 36 32 31 31 30 33 41 53 55 51 51 59 43 49 53 57 47 52 52 51 46 50 45 39 34 31 30 31 31 30 29
Wind_Direction
283 294 282 260 261 265 262 256 258 237 234 230 241 248 223 220 222 219 213 217 231 234 233 244 257 278 296 306 298 279 266 267 279 272 288 319 345 96 139 157 159 167 168
350 276 303 280 266 259 253 252 250 228 226 224 229 245 253 239 233 232 232 238 245 240 244 246 256 272 286 294 290 274 259 249 245 259 227 232 79 112 112 136 137 151 168
202 212 228 224 240 258 257 250 251 242 234 235 232 249 269 266 255 247 244 244 247 245 251 253 265 277 281 280 271 263 250 250 242 232 212 174 141 137 133 138 138 158 151
213 219 226 229 226 213 224 250 246 238 241 242 238 238 255 272 266 260 254 251 250 254 260 265 270 272 265 261 260 256 247 235 239 235 212 184 154 140 138 167 189 180 154
223 217 226 231 237 236 228 214 220 233 235 242 241 242 246 258 259 262 262 256 248 251 257 261 261 255 251 252 256 242 236 226 231 237 228 187 166 173 179 191 198 184 166
224 247 227 227 224 228 234 232 227 212 225 242 248 250 249 253 255 255 256 256 252 254 253 251 247 233 225 232 218 217 224 233 229 228 228 182 186 192 199 204 205 195 187
245 241 238 235 234 231 229 230 231 225 219 216 235 248 255 254 254 257 254 248 248 245 238 232 224 216 211 215 217 209 201 235 239 240 227 192 183 180 205 216 220 212 206
251 243 243 245 243 241 239 235 234 232 230 227 221 229 243 251 255 257 252 249 247 241 229 222 215 213 214 213 213 209 219 235 238 239 199 184 169 175 213 224 206 207 199
252 249 243 243 246 248 247 244 237 237 235 234 232 229 229 239 247 251 249 243 242 239 231 220 213 216 220 226 206 210 235 254 239 199 180 167 168 183 207 228 206 204 200
254 253 250 246 246 247 249 248 248 243 238 237 237 237 237 231 238 243 242 239 236 238 232 223 222 218 223 220 215 224 240 252 240 201 164 162 176 196 204 222 224 225 209
255 254 255 251 246 247 248 247 247 247 246 241 238 238 237 237 231 236 241 238 234 233 236 233 231 227 223 226 228 240 245 245 237 209 186 184 189 207 213 217 233 239 242
256 257 258 256 251 246 247 249 249 247 248 247 242 241 241 237 236 233 235 239 240 236 235 235 233 231 231 230 237 247 246 240 236 220 200 194 194 208 209 225 239 236 246
257 257 259 259 260 252 247 247 248 249 247 246 247 243 241 242 236 239 233 236 241 238 234 231 228 226 233 224 243 243 238 231 231 226 208 199 203 202 205 220 233 249 250
265 263 259 257 256 257 254 251 249 248 248 248 245 245 242 240 240 236 242 235 241 241 238 236 234 235 223 233 227 238 238 232 228 224 207 196 204 204 195 214 225 240 248
271 268 264 261 259 254 253 255 251 250 248 247 247 246 245 243 235 237 232 238 237 235 235 234 233 231 229 230 225 227 234 235 233 223 205 198 202 203 209 223 225 230 242
274 272 271 267 262 260 257 252 251 250 249 248 246 246 243 245 239 237 233 238 236 231 233 231 233 231 229 226 226 227 232 230 229 230 218 206 204 206 214 224 230 228 236
280 277 273 270 269 266 260 257 254 250 248 248 247 246 245 245 244 234 240 240 252 248 230 231 232 232 229 225 222 227 230 229 229 229 227 221 214 210 214 218 230 226 233
286 285 283 277 271 269 266 261 257 254 251 248 247 247 246 245 245 243 233 248 246 244 228 232 246 216 233 227 221 218 219 224 221 230 229 216 219 216 214 217 222 227 233
298 293 289 287 284 275 267 267 262 258 253 252 248 246 247 246 245 241 241 245 255 253 240 252 244 234 223 226 222 217 215 218 218 225 227 224 216 218 217 218 222 226 232
311 309 304 298 294 292 284 270 267 263 259 255 253 250 248 247 246 245 242 242 250 246 244 263 252 243 227 214 221 216 215 215 214 222 225 221 224 217 217 215 218 221 219
316 313 310 307 302 295 291 288 275 268 264 259 255 253 251 249 248 245 245 245 248 252 242 244 245 244 224 217 216 213 216 218 214 220 220 216 215 208 206 205 211 212 215
315 313 308 305 304 303 299 294 294 283 271 268 259 255 253 251 250 249 246 245 244 256 250 249 243 232 234 215 215 214 215 218 216 217 220 215 211 212 211 215 217 213 209
315 309 306 304 302 300 296 294 291 290 287 274 270 263 255 252 251 250 249 246 244 239 254 251 251 233 210 228 219 213 211 218 219 216 219 220 214 212 215 217 214 219 222
315 313 309 305 303 301 296 290 289 289 287 282 271 266 262 258 253 250 248 247 245 242 238 250 247 243 241 235 223 214 228 235 229 223 222 218 222 216 213 220 221 221 232
312 310 308 307 305 303 297 292 288 282 284 286 283 270 265 264 260 253 248 246 245 241 233 237 236 246 239 224 231 225 223 227 228 227 229 225 225 225 221 220 224 232 234
314 312 309 306 303 302 299 295 290 288 279 278 281 281 270 269 267 262 255 246 242 240 231 223 228 234 240 231 231 225 219 222 231 232 228 226 233 232 229 227 230 229 233
Height
3148 3150 3149 3149 3150 3151 3151 3151 3151 3152 3152 3153 3155 3155 3156 3157 3158 3159 3159 3160 3160 3161 3162 3163 3163 3163 3164 3164 3164 3164 3164 3164 3164 3164 3165 3166 3166 3166 3165 3167 3168 3170 3171
3144 3148 3148 3148 3149 3151 3150 3150 3152 3151 3152 3153 3154 3154 3155 3155 3156 3157 3158 3159 3160 3160 3161 3161 3162 3163 3163 3163 3163 3163 3163 3164 3164 3164 3165 3166 3166 3166 3167 3168 3169 3170 3170
3141 3143 3143 3143 3146 3149 3149 3150 3150 3151 3151 3152 3153 3154 3154 3155 3155 3155 3156 3158 3158 3159 3159 3160 3161 3161 3161 3161 3161 3162 3162 3163 3163 3164 3165 3165 3166 3167 3168 3170 3170 3170 3171
3140 3141 3141 3142 3142 3142 3144 3147 3148 3149 3150 3151 3151 3152 3153 3154 3154 3154 3155 3156 3157 3157 3158 3158 3158 3159 3159 3159 3160 3161 3161 3162 3162 3162 3164 3165 3167 3169 3169 3171 3171 3171 3172
3139 3139 3140 3140 3141 3142 3141 3139 3143 3147 3148 3149 3149 3150 3150 3152 3152 3153 3153 3153 3153 3155 3156 3156 3156 3157 3157 3157 3158 3159 3160 3160 3160 3160 3162 3165 3166 3168 3169 3170 3171 3171 3172
3137 3138 3138 3138 3139 3139 3140 3140 3140 3138 3144 3147 3147 3149 3149 3150 3150 3150 3150 3150 3151 3152 3153 3154 3154 3155 3155 3156 3156 3157 3158 3159 3159 3159 3160 3162 3165 3166 3168 3169 3170 3171 3172
3135 3137 3138 3137 3137 3137 3137 3137 3137 3137 3137 3138 3143 3145 3146 3147 3148 3148 3148 3148 3148 3149 3150 3151 3152 3153 3154 3155 3155 3156 3157 3158 3158 3158 3158 3160 3163 3166 3167 3168 3169 3170 3172
3133 3134 3135 3135 3135 3134 3134 3134 3134 3134 3135 3135 3135 3138 3142 3143 3144 3145 3145 3146 3146 3146 3147 3148 3149 3151 3152 3153 3153 3154 3155 3156 3156 3156 3157 3159 3161 3164 3166 3167 3168 3169 3171
3130 3130 3130 3131 3131 3131 3131 3131 3131 3131 3132 3133 3133 3133 3134 3137 3139 3141 3142 3143 3144 3144 3144 3145 3146 3148 3150 3151 3152 3152 3153 3154 3155 3155 3155 3157 3160 3163 3165 3167 3168 3168 3170
3126 3126 3126 3126 3127 3126 3126 3127 3127 3127 3128 3128 3129 3130 3129 3129 3132 3135 3137 3139 3140 3141 3142 3142 3143 3145 3147 3148 3149 3150 3150 3152 3153 3154 3155 3157 3160 3162 3164 3166 3167 3168 3169
3118 3120 3121 3121 3121 3121 3121 3121 3122 3123 3123 3123 3124 3125 3125 3126 3125 3128 3133 3134 3135 3137 3138 3139 3140 3142 3143 3145 3146 3147 3148 3149 3150 3152 3153 3155 3158 3160 3162 3165 3167 3168 3169
3111 3111 3112 3112 3114 3114 3114 3116 3116 3116 3116 3117 3118 3119 3120 3121 3123 3122 3126 3130 3131 3133 3134 3135 3136 3138 3139 3142 3144 3145 3145 3145 3146 3148 3151 3153 3155 3158 3160 3162 3164 3166 3167
3105 3104 3103 3104 3104 3106 3107 3108 3109 3109 3110 3110 3111 3112 3113 3115 3116 3118 3118 3123 3126 3127 3128 3128 3130 3132 3134 3137 3140 3141 3141 3141 3142 3144 3147 3150 3152 3155 3157 3159 3161 3163 3165
3097 3096 3096 3095 3096 3096 3097 3099 3100 3101 3103 3104 3103 3104 3105 3108 3110 3111 3113 3115 3119 3121 3122 3123 3125 3127 3129 3132 3135 3136 3137 3138 3139 3139 3142 3145 3149 3151 3153 3156 3158 3161 3163
3085 3085 3086 3085 3086 3086 3087 3089 3090 3092 3094 3095 3096 3095 3097 3099 3102 3104 3105 3107 3108 3110 3113 3116 3119 3121 3125 3127 3129 3132 3133 3134 3136 3136 3138 3140 3144 3148 3151 3153 3155 3158 3160
3077 3076 3074 3074 3075 3076 3076 3077 3079 3081 3084 3085 3087 3086 3087 3089 3093 3096 3099 3097 3095 3084 3103 3108 3111 3116 3119 3121 3123 3126 3128 3129 3130 3132 3135 3136 3139 3142 3146 3149 3151 3155 3157
3067 3066 3065 3064 3064 3065 3065 3066 3067 3069 3071 3074 3077 3077 3079 3081 3082 3087 3090 3088 3084 3091 3095 3097 3103 3107 3112 3115 3116 3120 3123 3124 3125 3127 3130 3134 3135 3138 3141 3145 3147 3151 3154
3057 3055 3054 3053 3053 3053 3054 3054 3055 3057 3058 3061 3064 3066 3069 3071 3072 3076 3079 3080 3082 3083 3085 3083 3093 3093 3103 3109 3110 3112 3115 3118 3120 3122 3123 3127 3130 3133 3136 3139 3142 3147 3151
3049 3046 3044 3041 3040 3041 3041 3041 3043 3045 3046 3048 3050 3053 3057 3059 3062 3065 3068 3070 3072 3074 3077 3082 3085 3084 3092 3097 3101 3105 3108 3111 3114 3116 3119 3122 3123 3127 3130 3134 3138 3143 3147
3043 3041 3037 3035 3032 3030 3028 3029 3029 3031 3034 3035 3037 3039 3043 3047 3050 3053 3057 3060 3061 3065 3067 3071 3074 3070 3079 3075 3091 3096 3101 3104 3107 3110 3113 3117 3118 3120 3123 3127 3132 3137 3143
3038 3035 3031 3029 3026 3022 3020 3018 3018 3018 3020 3022 3024 3026 3028 3032 3036 3040 3044 3049 3052 3054 3062 3062 3066 3055 3067 3072 3081 3087 3091 3096 3101 3103 3107 3111 3114 3117 3120 3123 3127 3132 3136
3032 3028 3026 3023 3020 3016 3012 3010 3009 3009 3008 3008 3010 3013 3014 3018 3021 3026 3031 3036 3041 3045 3049 3053 3059 3057 3053 3062 3071 3078 3081 3088 3091 3096 3101 3106 3109 3112 3116 3119 3122 3127 3130
3027 3022 3018 3015 3012 3009 3005 3003 3001 3000 3000 2999 2999 2999 3001 3003 3006 3011 3017 3022 3027 3035 3037 3043 3049 3051 3057 3060 3062 3068 3066 3075 3083 3090 3095 3100 3104 3107 3111 3115 3119 3122 3124
3019 3013 3009 3006 3002 3000 2997 2994 2992 2990 2990 2991 2990 2990 2991 2991 2993 2996 3001 3008 3013 3019 3027 3030 3034 3044 3046 3052 3058 3060 3064 3071 3076 3084 3088 3093 3097 3102 3107 3110 3114 3118 3121
3013 3007 3001 2995 2991 2988 2986 2984 2983 2983 2980 2979 2980 2980 2980 2981 2982 2983 2985 2993 3000 3005 3014 3021 3019 3031 3034 3039 3045 3050 3057 3062 3067 3075 3082 3086 3091 3095 3101 3105 3108 3111 3115
3006 3000 2994 2989 2985 2980 2975 2974 2972 2972 2972 2971 2969 2970 2971 2972 2972 2973 2973 2976 2984 2991 3000 3009 3013 3019 3027 3028 3033 3042 3045 3051 3055 3063 3071 3079 3085 3090 3095 3098 3101 3105 3109